User: anonymous   Login
Location: Radomski Observatory
(40.2854°N, 79.5145°W)
Time: 15:08:24
(UTC-05:00)
Language:

Cosmos 1072 Rocket - Orbit

View from above orbital plane
View from above orbital plane
View from above satellite
View from above satellite

Ground track
Ground track

The orbit data is extracted from the following two-line orbital elements,

1 11239U 79003B   17018.14700264  .00000113  00000-0  99705-4 0  9995
2 11239  82.9367 199.9289 0041948  92.0760  47.7167 13.75804573907225
Epoch (UTC): 18 January 2017 03:31:41
Eccentricity: 0.0041948
inclination: 82.9367°
perigee height: 948 km
apogee height: 1009 km
right ascension of ascending node: 199.9289°
argument of perigee: 92.0760°
revolutions per day: 13.75804573
mean anomaly at epoch: 47.7167°
orbit number at epoch: 90722

The dashed part of the orbit path shows where the satellite is in the earth's shadow,  

DLR